KI5NYZ-13 Weather Reports


time (UTC)temp
F
wind
direction
speed
knots
gust
knots
rain 1hr
in
rain 24hr
in
rain mn
in
humidity
%
barometer
mb
20260905161805 83 200 2.6 7.8 0.01 0.33 0.03 57 1009.9
20260905154804 82 188 2.6 7.0 0.01 0.32 0.02 60 1010.1
20260905151803 80 191 2.6 6.1 0.01 0.31 0.01 62 1010.3
20260905144802 78 178 3.5 6.1 0.00 0.30 0.00 65 1010.7
20260905141801 75 179 2.6 6.1 0.00 0.30 0.00 69 1011.3
20260905134800 74 172 0.9 5.2 0.00 0.30 0.00 71 1011.5
20260905131759 71 190 0.0 3.5 0.00 0.30 0.00 77 1011.8
20260905124758 70 202 0.0 1.7 0.00 0.30 0.00 78 1011.6
20260905121757 71 188 0.9 2.6 0.00 0.30 0.00 76 1011.1
20260905112054 71 183 0.0 0.0 0.00 0.30 0.00 75 1011.3
20260905105053 71 182 0.0 0.0 0.00 0.30 0.00 74 1011.4
20260905102052 72 68 0.0 0.0 0.00 0.30 0.00 74 1011.3
20260905095051 73 181 0.0 0.0 0.00 0.30 0.00 71 1010.9
20260905092050 74 186 0.0 0.0 0.00 0.30 0.00 69 1010.7
20260905085049 74 187 0.0 0.0 0.00 0.30 0.00 70 1010.6
20260905082048 74 177 0.0 0.0 0.00 0.30 0.00 70 1010.4
20260905075047 74 360 0.0 0.0 0.00 0.30 0.00 68 1010.4
20260905072046 75 187 0.0 0.0 0.00 0.30 0.00 67 1010.3
20260905065045 76 284 0.0 0.0 0.00 0.30 0.00 65 1010.2
20260905062044 77 194 0.0 0.0 0.00 0.30 0.00 63 1010.1
20260905055043 78 201 0.9 0.9 0.00 0.30 0.00 61 1009.6
20260905052042 79 195 1.7 1.7 0.01 0.30 0.00 58 1009.3
20260905045041 80 194 2.6 2.6 0.04 0.29 0.29 57 1009.4
20260905042040 80 192 3.5 3.5 0.07 0.28 0.28 57 1009.3
20260905035039 81 180 3.5 3.5 0.11 0.24 0.24 55 1009.0
20260905032038 82 180 3.5 4.3 0.13 0.19 0.19 53 1008.4
20260905025037 83 175 2.6 4.3 0.07 0.12 0.12 51 1007.6
20260905022036 85 121 0.9 0.9 0.02 0.06 0.06 49 1007.0
20260905015035 87 135 1.7 1.7 0.00 0.04 0.04 44 1005.8
20260905012034 95 134 0.0 0.0 0.00 0.03 0.03 28 1003.7
20260905005034 98 199 0.0 0.9 0.00 0.03 0.03 25 1002.8
20260905002032 100 187 0.0 0.0 0.00 0.03 0.03 23 1002.2
20260904235031 101 217 0.0 1.7 0.00 0.03 0.03 22 1001.9
20260904232030 99 166 0.0 0.0 0.00 0.03 0.03 23 1001.9
20260904225029 101 198 0.9 1.7 0.01 0.03 0.03 24 1001.5
20260904222029 102 188 1.7 1.7 0.01 0.04 0.03 22 1001.5
20260904215028 102 226 2.6 2.6 0.01 0.04 0.02 23 1001.7
20260904212026 101 351 0.0 0.9 0.01 0.05 0.02 22 1002.2
20260904205026 102 190 3.5 3.5 0.00 0.04 0.01 21 1002.7
20260904202024 100 141 0.9 4.3 0.00 0.04 0.00 24 1003.5
20260904195022 100 186 3.5 8.7 0.00 0.04 0.00 24 1003.8
20260904192022 100 171 0.0 3.5 0.00 0.04 0.00 24 1004.2
20260904185021 97 261 2.6 2.6 0.00 0.05 0.00 27 1005.0
20260904182019 95 263 2.6 2.6 0.00 0.07 0.00 31 1005.9
20260904175019 93 241 2.6 2.6 0.00 0.09 0.00 34 1006.7
20260904172017 91 276 2.6 2.6 0.00 0.10 0.00 36 1007.3
20260904165017 90 284 2.6 2.6 0.00 0.11 0.00 39 1007.7